SL-8 R/B

Satellite information

Favourite Embed

Satellite Type and Status

ROCKET BODYIN ORBIT

Key statistics

Satellite SL-8 R/B at a glance.

Uptime

11396

Days in orbit

Revolutions

≈ 13.8

Per day

Orbit

LEO

Low Earth Orbit

Inclination

82.9

Latest

Satellite identification and parameters

Extended collection of information and parameters for SL-8 R/B.

Object identification

Identified? True

Debris? False

Object name: SL-8 R/B

International designator: 1994-024B

Object number (NORAD): 23093

Object ID (CCSDS): 23093

Country: COMMONWEALTH OF INDEPENDENT STATES (CIS)

Current information (Y/N): Y

RCS size: LARGE

Orbital parameters

Period: 104.484 minutes

Inclination: 82.9451 deg

SMA: 7348.417 km

Apoapsis: 978.404 km

Periapsis: 962.159 km

RAAN: 85.0727 deg

Eccentricy: 0.0011053

Argument of periapsis: 40.6442 deg

Mean anomaly: 319.5539 deg

Mean motion: 13.78199585 rev/day

Mean motion (dot): 0.00000067 rev/day2

B* drag term: 0.000051032 1/REarth

Two-line elements (TLE)

Creation date: July 8, 2025, 2:27 a.m.

Reference frame: TEME

Reference center: EARTH

Epoch: July 7, 2025, 7:39 p.m. UTC

TLE line 0: 0 SL-8 R/B

TLE line 1: 1 23093U 94024B 25188.81944168 .00000067 00000-0 51032-4 0 9999

TLE line 2: 2 23093 82.9451 85.0727 0011053 40.6442 319.5539 13.78199585 36434

Live tracking on map

Real-time ground track for satellite SL-8 R/B.

In-orbit conjunctions

A list of the most updated potential collisions computed for object SL-8 R/B.

Target Orbit TCA Probability of collision Miss distance Type
THOR ABLESTAR DEB LEO 2025-02-13 00:45:49 0.0003727107 455.0 (m) DEBRIS
COSMOS 1275 DEB LEO 2024-10-16 23:19:41 0.000107816 686.0 (m) DEBRIS

Associated space launch

Navigation satellite providing location information for the Tsiklon-B navigation system

SL-8 R/B was lifted into orbit during the mission ‘Kosmos-3M | Parus 82’, on board a Kosmos-3M space rocket.

The launch took place on April 26, 1994, 2:14 a.m. from 133/3 (133L).

For more information about the launch, click the button.

Launch to space Kosmos-3M | Parus 82
Kosmos-3M | Parus 82

Agency: N/A

Status: Launch Successful

Launch date: April 26, 1994, 2:14 a.m. UTC

Rocket: Kosmos-3M

Launch pad: 133/3 (133L)

Location: Plesetsk Cosmodrome, Russian Federation

...

Latest news about this satellite

There are no fresh news available about this satellite. Check back as we update our databases every day.


Newsletter sign-up

Weekly statistics, charts and insights to help you stay on top of the space industry.